Weather History for Volk, WI

Change the Weather History Date:

Monday, May 20, 2013

  Actual Average Record
Temperature  
Mean Temperature 70 °F -  
Max Temperature 81 °F 64 °F 82 °F (2012)
Min Temperature 60 °F 49 °F 35 °F (2002)
Cooling Degree Days 5    
Growing Degree Days 20 (Base 50)    
Moisture  
Dew Point 61 °F    
Average Humidity 86    
Maximum Humidity 100    
Minimum Humidity 45    
Precipitation  
Precipitation 0.45 in - - ()
Sea Level Pressure  
Sea Level Pressure 29.67 in    
Wind  
Wind Speed 10 mph (SSE)    
Max Wind Speed 28 mph    
Max Gust Speed 33 mph    
Visibility 9 miles    
Events Rain , Thunderstorm    
Averages and records for this station are not official NWS values.
T = Trace of Precipitation, MM = Missing Value Source: NWS Daily Summary

Daily Weather History Graph

Daily Weather History Graph

Search for Another Location

Airport:

Trip Planner

Search our weather history database for the weather conditions in past years. The results will help you decide how hot, cold, wet, or windy it might be!

Date:

Astronomy

May. 20, 2013 Rise Set
Actual Time 5:29 AM CDT 8:25 PM CDT
Civil Twilight 4:55 AM CDT 8:59 PM CDT
Nautical Twilight 4:12 AM CDT 9:43 PM CDT
Astronomical Twilight 3:21 AM CDT 10:34 PM CDT
Moon 3:24 PM CDT (5/20) 2:35 AM CDT (5/20)
Length of Visible Light 16h 04m
Length of Day
14h 56m
Waxing Gibbous, 75% of the Moon is Illuminated
May 20
Waxing Gibbous
May 24
Full
May 31
Last Quarter
Jun 8
New
Jun 16
First Quarter

Hourly Weather History & Observations

Time (CDT) Temp. Heat Index Dew Point Humidity Pressure Visibility Wind Dir Wind Speed Gust Speed Precip Events Conditions
12:03 AM 66.2 °F - 60.8 °F 83% 29.69 in 7.0 mi WNW 12.7 mph - N/A Rain Light Rain
12:24 AM 64.4 °F - 60.8 °F 88% 29.66 in 10.0 mi NW 8.1 mph - N/A   Partly Cloudy
12:58 AM 62.8 °F - 61.3 °F 95% 29.68 in 10.0 mi SE 3.5 mph - 0.00 in   Scattered Clouds
1:09 AM 62.6 °F - 60.8 °F 94% 29.71 in 10.0 mi SW 8.1 mph - N/A Rain , Thunderstorm Light Rain
1:15 AM 62.6 °F - 62.6 °F 100% 29.79 in 9.0 mi SW 27.6 mph 29.9 mph N/A Rain , Thunderstorm Light Thunderstorms and Rain
1:19 AM 62.6 °F - 62.6 °F 100% 29.78 in 1.8 mi SW 18.4 mph 33.4 mph N/A Rain , Thunderstorm Heavy Thunderstorms and Rain
1:24 AM 62.6 °F - 62.6 °F 100% 29.79 in 1.0 mi SW 15.0 mph 33.4 mph N/A Rain , Thunderstorm Heavy Thunderstorms and Rain
1:29 AM 62.6 °F - 62.6 °F 100% 29.78 in 1.5 mi WSW 9.2 mph 24.2 mph N/A Rain , Thunderstorm Thunderstorms and Rain
1:34 AM 62.6 °F - 62.6 °F 100% 29.77 in 4.0 mi WSW 8.1 mph - N/A Rain , Thunderstorm Thunderstorms and Rain
1:44 AM 62.6 °F - 62.6 °F 100% 29.73 in 2.5 mi NW 3.5 mph - N/A Rain , Thunderstorm Thunderstorms and Rain
1:49 AM 62.6 °F - 62.6 °F 100% 29.72 in 3.0 mi North 4.6 mph - N/A Rain , Thunderstorm Thunderstorms and Rain
1:54 AM 62.6 °F - 62.6 °F 100% 29.70 in 5.0 mi NNE 5.8 mph - N/A Rain , Thunderstorm Thunderstorms and Rain
1:58 AM 62.4 °F - 62.2 °F 99% 29.69 in 5.0 mi NE 6.9 mph - 0.41 in Rain , Thunderstorm Thunderstorms and Rain
2:01 AM 62.6 °F - 62.6 °F 100% 29.67 in 7.0 mi NE 6.9 mph - N/A Rain Light Rain
2:29 AM 62.6 °F - 62.6 °F 100% 29.65 in 10.0 mi East 6.9 mph - N/A   Partly Cloudy
2:34 AM 62.6 °F - 62.6 °F 100% 29.65 in 10.0 mi ESE 5.8 mph - N/A   Partly Cloudy
2:58 AM 62.2 °F - 62.2 °F 100% 29.66 in 10.0 mi SE 6.9 mph - 0.04 in   Scattered Clouds
3:03 AM 62.6 °F - 62.6 °F 100% 29.66 in 10.0 mi SE 8.1 mph - N/A   Mostly Cloudy
3:08 AM 62.6 °F - 62.6 °F 100% 29.66 in 10.0 mi SE 8.1 mph - N/A   Mostly Cloudy
3:58 AM 62.4 °F - 62.4 °F 100% 29.62 in 10.0 mi SE 13.8 mph - N/A   Overcast
4:33 AM 62.6 °F - 62.6 °F 100% 29.62 in 10.0 mi SE 9.2 mph - N/A   Overcast
4:48 AM 62.6 °F - 62.6 °F 100% 29.60 in 10.0 mi SE 9.2 mph - N/A   Mostly Cloudy
4:53 AM 60.8 °F - 60.8 °F 100% 29.61 in 10.0 mi SE 9.2 mph - N/A   Scattered Clouds
4:58 AM 61.5 °F - 61.5 °F 100% 29.61 in 10.0 mi SE 8.1 mph - N/A   Scattered Clouds
5:58 AM 61.2 °F - 61.2 °F 100% 29.64 in 10.0 mi SE 8.1 mph - N/A   Partly Cloudy
6:58 AM 61.9 °F - 61.9 °F 100% 29.68 in 10.0 mi SSE 5.8 mph - N/A   Partly Cloudy
7:58 AM 63.9 °F - 61.7 °F 93% 29.68 in 10.0 mi SSE 9.2 mph - N/A   Overcast
8:58 AM 68.0 °F - 60.8 °F 78% 29.67 in 10.0 mi South 11.5 mph - N/A   Mostly Cloudy
9:58 AM 69.8 °F - 60.8 °F 73% 29.67 in 10.0 mi SSW 10.4 mph 20.7 mph N/A   Scattered Clouds
10:58 AM 73.4 °F - 60.8 °F 65% 29.67 in 10.0 mi SW 10.4 mph - N/A   Scattered Clouds
11:58 AM 75.2 °F - 59.0 °F 57% 29.66 in 10.0 mi SW 13.8 mph 18.4 mph N/A   Partly Cloudy
12:58 PM 77.7 °F - 59.0 °F 52% 29.66 in 10.0 mi South 16.1 mph 24.2 mph N/A   Clear
1:58 PM 78.8 °F - 59.0 °F 51% 29.66 in 10.0 mi South 19.6 mph 27.6 mph N/A   Partly Cloudy
2:58 PM 78.8 °F - 59.0 °F 51% 29.66 in 10.0 mi South 12.7 mph 29.9 mph N/A   Scattered Clouds
3:58 PM 80.6 °F 81.5 °F 60.8 °F 51% 29.65 in 10.0 mi South 15.0 mph 23.0 mph N/A   Mostly Cloudy
4:58 PM 80.6 °F 81.1 °F 59.0 °F 48% 29.64 in 10.0 mi SSW 9.2 mph 21.9 mph N/A   Mostly Cloudy
5:58 PM 80.6 °F 80.8 °F 57.2 °F 45% 29.64 in 10.0 mi SSW 18.4 mph 25.3 mph N/A   Scattered Clouds
6:58 PM 78.8 °F - 57.2 °F 47% 29.64 in 10.0 mi SW 15.0 mph 19.6 mph N/A   Partly Cloudy
7:58 PM 75.2 °F - 57.2 °F 53% 29.64 in 10.0 mi SW 4.6 mph - N/A   Partly Cloudy
8:58 PM 64.4 °F - 59.0 °F 83% 29.64 in 10.0 mi East 3.5 mph - N/A   Mostly Cloudy
9:58 PM 62.6 °F - 59.0 °F 88% 29.65 in 10.0 mi Calm Calm - N/A   Mostly Cloudy
10:44 PM 62.6 °F - 59.0 °F 88% 29.61 in 10.0 mi ENE 2.3 mph - N/A Thunderstorm Overcast
10:55 PM 64.4 °F - 60.8 °F 88% 29.62 in 10.0 mi SE 4.6 mph - N/A Thunderstorm Thunderstorm
10:58 PM 64.4 °F - 60.8 °F 88% 29.63 in 10.0 mi SSE 4.6 mph - N/A Rain , Thunderstorm Light Thunderstorms and Rain
11:45 PM 66.2 °F - 64.4 °F 94% 29.60 in 10.0 mi East 8.1 mph - N/A Rain , Thunderstorm Light Rain Showers
11:58 PM 66.2 °F - 64.4 °F 94% 29.58 in 10.0 mi East 6.9 mph - N/A Rain Light Rain Showers